Temperature
13 12 12 12 12 12 11 10 10 9 9 8 8 8 8 7 7 7 7 6 6 6 6 6 6 5 5 5 4 4 4 3 3 3 3 3 3 3 3 3 3 3 3
11 11 11 11 10 10 9 9 8 8 8 7 7 7 7 6 6 6 6 6 5 5 5 5 5 5 4 4 3 3 3 2 2 2 3 3 3 3 2 2 3 2 2
10 10 10 9 9 8 8 8 7 7 7 6 6 6 6 5 5 5 5 5 5 5 5 4 4 4 4 3 3 2 2 2 1 1 2 2 3 3 2 2 2 2 2
9 9 8 8 8 7 7 7 6 6 6 6 5 5 5 5 5 4 4 4 4 4 4 4 3 3 3 2 2 2 2 2 1 1 2 2 2 2 2 2 2 2 2
8 7 7 7 7 6 6 6 6 5 5 5 5 4 4 4 4 4 4 4 4 3 3 3 3 2 2 2 1 1 1 1 1 2 2 2 2 2 1 1 1 1 1
7 6 6 6 6 6 5 5 5 4 4 4 4 3 3 3 3 3 3 3 3 3 3 2 2 2 1 1 1 1 1 1 1 1 2 2 2 1 1 1 1 1 0
6 6 5 5 5 5 4 4 4 4 3 3 3 3 2 2 2 2 2 2 2 2 2 2 2 1 1 1 1 1 1 1 1 1 1 2 1 1 1 1 1 0 0
5 5 5 4 4 4 4 4 3 3 3 3 2 2 2 2 1 1 1 1 1 1 1 1 1 1 1 1 2 2 2 2 2 2 2 2 1 1 1 1 1 1 1
4 4 4 4 4 4 3 3 3 3 2 2 2 2 2 2 1 1 1 1 1 1 1 1 1 1 1 1 2 2 2 2 2 2 2 2 2 1 1 1 1 0 0
4 4 4 4 3 3 3 3 3 3 2 2 2 2 2 1 1 1 1 1 1 1 1 1 1 1 1 1 2 2 2 2 2 2 2 2 2 1 1 1 1 0 0
4 4 4 3 3 3 3 3 3 3 2 2 2 2 2 1 1 1 0 0 1 1 1 1 1 1 2 2 2 2 2 2 2 2 2 2 2 2 1 1 1 1 1
4 3 3 3 3 3 3 3 3 3 2 2 2 2 1 1 1 0 0 0 0 0 1 1 1 2 2 2 2 2 2 2 2 2 2 2 2 2 2 2 1 1 1
4 4 3 3 3 3 3 3 3 3 2 2 2 2 1 1 0 0 0 0 0 0 1 1 1 2 2 2 2 2 3 3 3 3 3 3 2 2 2 2 2 2 1
4 4 4 3 3 3 3 3 3 3 2 2 2 1 1 1 0 0 0 0 0 0 1 1 1 2 2 2 3 3 3 3 3 3 3 3 3 3 3 3 3 2 2
4 4 4 4 4 4 3 3 3 3 2 2 1 1 1 0 -0 -0 -0 0 0 1 1 1 2 2 2 3 3 3 3 3 4 4 4 4 4 4 4 3 3 3 2
4 4 4 4 4 4 4 3 3 3 2 2 1 0 0 -0 -0 -0 -0 0 0 1 1 2 2 2 3 3 3 3 4 4 4 4 4 4 4 4 4 4 4 3 3
4 4 4 4 4 4 4 3 3 2 2 1 1 0 -0 -0 -0 0 0 0 1 1 1 2 2 3 3 3 3 4 4 4 4 4 4 4 4 4 4 4 4 4 3
5 5 5 4 4 4 4 3 3 2 1 1 1 0 0 0 0 0 0 1 1 1 2 2 2 3 3 3 4 4 4 4 4 4 4 4 5 5 5 4 4 4 4
5 5 5 4 4 4 3 3 2 2 1 1 0 0 0 0 0 0 1 1 1 2 2 2 3 3 3 3 4 4 4 4 4 4 5 5 5 5 5 5 4 4 4
5 5 5 4 4 3 3 2 2 1 1 1 0 0 0 0 1 1 1 1 2 2 2 3 3 3 3 4 4 4 4 4 4 4 5 5 5 5 5 4 4 4 4
5 5 5 4 4 3 3 2 2 1 1 1 0 0 0 1 1 1 1 2 2 2 3 3 3 3 3 4 4 4 4 4 4 4 5 5 5 5 5 4 4 4 4
5 5 4 4 3 3 3 2 2 1 1 1 1 1 1 1 1 1 1 2 2 2 3 3 3 3 4 4 4 4 4 4 4 4 4 5 5 5 5 4 4 4 4
5 4 4 4 3 3 3 2 2 2 1 1 1 1 1 1 1 1 1 2 2 2 2 3 3 3 3 4 4 4 4 4 4 4 4 4 5 5 4 4 4 4 4
4 4 4 4 3 3 3 2 2 2 1 1 1 1 1 1 1 1 1 2 2 2 2 3 3 3 3 4 4 4 4 4 4 4 4 4 4 4 4 4 4 4 3
4 4 4 4 3 3 3 2 2 1 1 1 1 1 1 1 1 1 1 2 2 2 2 3 3 3 3 3 3 4 4 4 4 4 4 4 4 4 4 4 4 3 3
4 4 4 4 3 3 3 2 2 1 1 1 1 1 1 1 1 1 1 2 2 2 3 3 3 3 3 3 3 4 4 4 4 4 4 4 4 4 4 4 3 3 3
Wind_Speed
14 14 15 14 14 14 14 14 13 12 12 13 12 13 12 11 10 9 8 7 8 7 5 6 5 4 3 3 2 2 1 2 3 4 3 6 8 11 14 15 16 15 16
14 15 16 16 16 16 15 14 14 14 13 13 13 13 12 11 9 9 8 7 6 6 4 4 3 2 3 2 1 1 2 3 3 5 5 6 7 10 11 13 14 15 16
14 16 16 16 16 15 15 14 14 14 13 13 13 12 11 10 9 8 7 6 5 4 3 2 1 1 1 1 1 1 2 2 3 4 7 5 6 7 8 10 12 13 15
14 15 16 15 15 14 14 14 13 12 13 12 11 10 9 8 7 6 6 6 5 4 3 2 2 1 1 1 1 2 2 3 4 5 7 7 6 7 7 9 11 11 12
14 14 14 13 13 13 13 13 12 11 11 9 9 9 7 7 6 6 5 5 5 5 4 4 4 3 2 1 2 2 3 4 6 7 8 7 8 8 8 7 10 11 12
13 13 12 12 12 12 11 11 11 10 8 7 7 7 7 6 8 9 6 5 4 5 5 5 5 5 6 6 6 6 6 7 8 7 8 9 11 10 9 9 10 10 8
12 12 11 10 10 9 9 9 9 7 6 6 5 5 5 4 7 8 8 4 4 4 4 5 5 5 6 5 7 10 11 12 11 9 10 11 10 10 9 10 10 10 11
10 9 9 9 9 8 8 7 6 5 4 3 3 2 2 2 5 6 7 5 4 4 4 4 5 6 5 6 7 9 10 11 11 8 9 11 11 11 9 8 9 9 10
8 7 7 7 7 7 7 5 3 3 2 1 1 1 1 3 5 6 5 4 5 6 6 6 6 7 9 10 8 9 11 11 11 10 12 13 15 15 11 5 6 7 9
6 6 6 6 6 6 5 3 2 2 2 2 2 2 2 3 6 7 5 3 5 7 7 7 8 8 11 11 8 8 10 10 10 10 9 9 8 8 7 4 4 5 7
5 6 6 5 5 5 4 3 3 3 3 3 3 3 3 4 6 7 7 3 4 6 7 7 8 12 14 13 10 7 9 10 9 7 6 6 6 5 6 6 4 4 5
5 5 4 4 3 3 4 3 3 3 3 3 2 3 3 3 5 7 9 8 7 5 7 7 8 14 15 14 9 8 10 7 4 4 4 5 5 6 7 8 9 7 7
5 3 2 3 3 2 2 2 2 2 1 1 1 2 2 3 4 8 9 10 10 6 7 11 14 14 12 8 8 10 7 3 3 3 4 4 4 6 7 7 7 7 8
3 2 1 1 1 1 1 1 1 1 0 0 0 1 2 3 4 5 6 7 9 8 7 10 12 10 7 7 7 5 4 3 3 3 4 5 5 5 5 4 4 5 5
2 1 0 0 1 0 0 0 1 1 2 2 1 1 1 3 5 8 7 7 7 7 8 5 5 6 7 7 7 6 5 5 4 4 5 6 6 6 5 5 3 4 4
1 1 1 1 1 1 1 1 3 2 1 2 3 2 2 5 9 10 11 12 12 11 5 4 6 6 6 6 7 7 5 6 6 6 6 6 6 7 7 5 4 3 4
3 3 2 1 1 1 1 1 0 2 2 1 2 4 5 7 8 10 12 13 10 8 4 5 5 6 6 6 6 5 5 7 6 6 6 6 6 6 6 6 5 4 4
3 3 3 2 2 1 1 2 1 1 1 2 3 5 7 7 8 9 10 8 6 6 5 5 6 6 6 6 6 6 6 7 7 7 7 7 6 6 6 6 5 5 4
3 2 1 1 1 2 2 2 2 1 1 1 2 4 7 7 7 8 7 4 5 6 6 6 6 6 6 6 6 6 6 6 7 7 7 7 7 6 6 6 6 6 3
2 2 2 2 3 3 3 3 2 2 1 2 3 3 4 5 5 5 5 5 5 5 6 6 6 6 6 6 6 7 7 7 8 7 7 7 7 6 6 7 6 5 4
0 1 4 4 3 3 3 2 2 1 1 1 2 3 5 3 4 5 5 6 6 6 6 6 6 6 6 6 6 7 8 7 7 7 7 7 7 6 6 5 5 5 4
1 2 2 3 2 2 2 2 2 1 0 1 2 3 5 3 3 4 5 5 5 5 6 6 5 5 6 6 6 7 7 8 8 8 8 8 7 7 6 5 5 5 5
2 3 3 2 2 2 2 2 1 1 0 1 2 3 3 4 4 4 5 5 5 7 8 8 7 8 10 9 8 7 6 8 8 8 8 8 7 6 5 5 6 6 7
3 3 3 3 2 2 2 1 1 1 1 1 2 2 3 3 4 4 4 5 6 8 9 9 9 11 14 13 11 10 10 12 12 10 8 6 6 5 5 5 6 6 6
3 3 3 3 3 2 2 2 2 2 2 2 2 2 3 3 3 4 4 5 7 8 10 11 11 12 15 15 15 15 18 17 14 10 7 5 5 6 6 7 6 7 7
3 3 3 3 3 3 3 3 2 2 2 2 2 2 2 3 3 3 4 5 6 8 10 11 13 14 16 16 17 19 19 17 16 13 9 6 6 6 6 6 8 7 8
Wind_Direction
72 77 80 79 81 83 84 85 86 84 84 84 83 83 81 78 77 82 83 85 91 89 91 100 102 110 107 104 108 119 140 174 239 276 273 293 299 302 311 311 310 307 304
76 80 80 79 79 80 79 79 79 78 76 79 79 77 76 74 71 75 78 74 80 82 78 88 94 101 101 118 138 163 196 209 231 284 299 301 294 298 300 303 305 308 305
76 79 79 80 80 80 81 81 80 80 78 78 78 75 72 69 66 64 67 66 65 64 63 75 78 82 89 178 213 238 249 247 233 267 294 295 294 297 304 304 306 305 307
74 77 78 78 81 82 83 83 84 84 83 81 81 80 77 72 67 64 65 59 54 48 38 27 354 298 253 247 255 264 269 281 282 286 294 299 295 299 300 308 316 317 314
76 77 78 80 82 84 84 84 85 85 88 88 87 82 78 72 65 63 57 54 43 34 23 8 339 341 349 295 296 274 272 289 299 301 301 301 303 309 311 309 311 314 312
77 79 79 80 81 82 86 89 89 89 88 88 86 85 76 70 68 70 72 56 42 29 11 354 342 1 357 350 335 317 302 299 300 295 293 294 296 300 304 307 312 316 318
78 80 81 83 84 86 94 94 94 92 91 88 85 85 80 68 65 63 64 59 37 17 359 348 345 343 345 332 322 317 309 299 287 275 277 280 288 295 302 305 307 308 303
82 83 86 87 89 88 90 92 92 93 96 96 93 86 71 40 41 43 44 35 14 354 341 331 324 319 319 325 319 312 307 301 295 282 265 273 280 287 287 288 294 298 296
85 85 86 90 93 91 91 89 86 90 82 70 66 39 356 345 2 10 20 2 345 335 328 321 314 308 309 321 318 311 309 307 308 299 287 283 284 287 286 285 298 309 317
90 89 89 93 97 96 94 85 65 67 53 42 33 12 357 348 0 7 8 348 333 327 322 318 315 309 308 314 310 301 300 304 315 321 320 320 312 309 306 278 279 300 313
93 90 87 92 100 102 89 69 68 64 54 41 36 24 20 15 10 12 9 350 325 319 318 319 315 314 313 311 306 282 272 285 301 306 312 319 323 323 322 315 281 261 290
92 90 87 83 82 97 92 74 63 66 59 36 26 17 12 7 5 356 354 346 333 312 307 309 305 309 311 312 311 298 300 302 299 311 321 323 322 322 320 316 306 288 265
94 91 80 67 59 83 103 100 75 69 64 21 19 0 339 335 336 343 342 337 333 321 300 302 307 310 314 316 316 322 328 329 322 323 322 310 299 299 305 311 311 315 311
114 106 83 78 49 47 69 122 142 152 147 70 17 347 331 330 334 340 337 334 332 330 322 318 317 315 320 321 327 338 342 319 302 303 301 296 300 309 312 316 313 325 327
134 130 98 221 232 201 67 70 209 219 204 187 200 221 316 330 315 317 323 324 323 317 321 324 341 349 356 354 347 341 338 343 338 323 312 314 316 317 315 319 312 319 324
192 245 246 250 246 201 155 63 42 53 115 169 186 203 261 274 304 323 332 331 330 332 334 337 341 347 347 343 339 336 334 341 337 328 322 319 318 319 319 323 320 319 328
223 250 257 251 243 223 180 159 101 11 25 5 305 293 297 312 325 335 339 337 338 342 347 342 342 344 341 337 334 330 324 326 326 329 329 329 326 325 326 331 333 330 337
237 250 243 240 236 213 175 159 147 104 19 347 338 342 347 343 343 346 347 348 352 355 351 347 345 342 339 337 337 335 331 334 339 339 337 337 337 335 339 342 341 334 333
245 250 234 189 150 131 126 124 121 107 59 357 346 347 354 352 358 4 3 2 347 347 348 348 346 343 340 339 339 338 335 334 339 340 341 341 342 342 343 346 347 346 348
271 234 160 128 118 116 115 113 113 103 62 18 358 349 350 2 6 357 356 351 352 351 350 349 347 347 345 344 344 344 343 343 345 347 343 342 342 343 345 349 356 2 6
341 104 119 114 118 123 123 128 129 109 62 5 344 346 357 358 352 348 351 356 358 356 352 350 350 351 350 348 347 347 346 343 342 341 340 340 340 340 342 355 9 19 24
120 114 111 116 119 121 124 129 128 127 83 351 343 352 5 12 2 356 357 358 359 360 358 353 352 353 351 347 343 340 338 339 341 339 335 335 336 338 346 6 20 26 30
128 122 112 110 114 119 112 109 118 128 60 14 8 10 12 10 3 1 1 359 1 5 5 5 359 356 353 348 342 334 327 324 320 317 319 325 334 342 354 14 26 35 37
129 133 132 127 117 111 113 109 94 87 77 61 42 26 19 11 2 3 5 6 9 9 8 6 3 356 353 351 346 340 333 326 320 313 313 320 337 356 18 34 39 45 50
125 130 135 136 134 129 120 110 97 84 74 60 46 29 19 15 11 12 13 14 14 11 9 6 2 357 354 352 351 347 346 351 354 350 345 357 19 31 39 44 46 50 50
126 128 129 130 132 134 133 128 116 102 81 67 53 40 30 24 20 20 18 15 11 7 5 3 1 0 359 357 355 357 2 6 10 16 21 31 40 41 45 51 56 53 56
Height
1511 1512 1513 1515 1517 1520 1522 1525 1528 1531 1533 1535 1538 1539 1542 1544 1546 1547 1548 1549 1549 1549 1549 1549 1549 1548 1547 1546 1545 1545 1544 1543 1541 1539 1537 1534 1531 1528 1525 1522 1519 1515 1511
1514 1515 1515 1517 1520 1522 1525 1528 1531 1534 1536 1538 1541 1542 1544 1545 1547 1548 1549 1549 1548 1548 1548 1548 1547 1546 1545 1544 1543 1542 1541 1539 1538 1535 1532 1530 1527 1524 1520 1517 1514 1510 1505
1518 1518 1520 1522 1524 1527 1529 1532 1536 1538 1540 1542 1544 1545 1546 1547 1547 1548 1548 1548 1547 1546 1546 1545 1545 1544 1543 1541 1540 1539 1538 1536 1534 1531 1528 1525 1522 1519 1515 1512 1509 1504 1499
1523 1524 1525 1527 1530 1533 1535 1537 1540 1542 1544 1545 1546 1546 1547 1548 1548 1548 1547 1546 1545 1544 1544 1543 1542 1541 1540 1539 1538 1536 1535 1533 1531 1528 1525 1521 1518 1515 1511 1507 1502 1498 1493
1529 1530 1532 1534 1536 1538 1539 1541 1543 1545 1546 1548 1548 1548 1548 1548 1548 1547 1546 1545 1544 1543 1542 1541 1540 1539 1537 1536 1535 1533 1532 1529 1527 1524 1521 1517 1514 1510 1507 1502 1497 1492 1488
1535 1536 1538 1539 1541 1542 1543 1545 1546 1548 1549 1549 1549 1549 1549 1548 1548 1547 1545 1544 1543 1541 1540 1539 1538 1536 1535 1534 1533 1531 1529 1527 1523 1521 1517 1514 1510 1507 1503 1499 1494 1489 1483
1540 1541 1543 1544 1545 1546 1548 1549 1550 1550 1551 1551 1551 1551 1550 1549 1548 1547 1545 1543 1541 1539 1538 1536 1535 1533 1532 1531 1530 1528 1527 1524 1522 1519 1514 1511 1507 1504 1499 1495 1492 1487 1483
1545 1546 1547 1548 1549 1550 1551 1552 1552 1553 1553 1553 1553 1552 1551 1550 1548 1547 1545 1542 1540 1538 1536 1534 1532 1531 1530 1528 1527 1525 1523 1522 1519 1516 1512 1508 1504 1501 1497 1493 1489 1485 1480
1549 1550 1551 1552 1552 1553 1554 1554 1555 1555 1555 1555 1554 1553 1551 1550 1548 1546 1544 1542 1539 1537 1534 1532 1530 1529 1528 1526 1524 1523 1521 1518 1516 1513 1509 1505 1501 1498 1495 1491 1487 1482 1477
1553 1554 1555 1555 1556 1556 1556 1557 1557 1557 1556 1555 1554 1553 1551 1549 1547 1546 1543 1540 1538 1536 1533 1531 1529 1527 1526 1524 1523 1521 1518 1515 1513 1510 1507 1503 1500 1497 1493 1490 1486 1481 1476
1556 1557 1557 1558 1558 1558 1559 1559 1558 1558 1557 1556 1555 1553 1551 1549 1547 1545 1542 1539 1536 1534 1532 1530 1528 1526 1525 1523 1521 1519 1517 1514 1511 1508 1505 1502 1499 1496 1493 1489 1485 1481 1476
1559 1559 1560 1560 1560 1561 1560 1560 1560 1559 1558 1556 1555 1553 1550 1548 1546 1543 1540 1538 1535 1533 1531 1529 1527 1526 1524 1522 1520 1519 1516 1514 1511 1508 1505 1502 1499 1495 1492 1488 1485 1480 1476
1561 1562 1562 1562 1562 1562 1562 1561 1560 1559 1557 1556 1554 1552 1550 1547 1545 1542 1539 1537 1535 1533 1531 1529 1527 1525 1524 1522 1520 1519 1517 1514 1511 1509 1505 1502 1499 1495 1492 1488 1485 1481 1477
1563 1563 1563 1563 1563 1562 1562 1561 1560 1558 1557 1555 1553 1551 1549 1546 1544 1541 1539 1537 1535 1533 1531 1529 1527 1526 1524 1522 1521 1519 1517 1515 1512 1509 1506 1503 1499 1496 1492 1488 1484 1480 1475
1564 1564 1564 1563 1563 1562 1561 1560 1559 1557 1556 1555 1552 1550 1548 1546 1543 1541 1539 1537 1535 1533 1531 1530 1528 1526 1525 1523 1522 1520 1518 1516 1513 1510 1506 1503 1499 1496 1492 1488 1484 1480 1475
1564 1564 1564 1563 1562 1561 1560 1559 1558 1557 1555 1554 1552 1550 1548 1546 1543 1541 1539 1537 1536 1534 1532 1530 1529 1527 1526 1524 1523 1521 1519 1516 1513 1510 1507 1504 1500 1496 1492 1488 1485 1481 1476
1564 1563 1563 1562 1561 1560 1559 1558 1557 1556 1555 1553 1551 1550 1548 1545 1543 1541 1540 1538 1536 1535 1533 1531 1530 1529 1527 1526 1524 1522 1519 1517 1514 1511 1507 1504 1501 1497 1493 1489 1485 1482 1478
1563 1562 1562 1561 1560 1560 1559 1558 1557 1556 1555 1553 1551 1550 1547 1545 1544 1542 1540 1539 1538 1536 1535 1533 1532 1530 1529 1527 1525 1523 1520 1518 1515 1511 1508 1505 1502 1498 1494 1490 1486 1482 1479
1562 1562 1561 1560 1560 1559 1558 1558 1557 1556 1554 1553 1552 1550 1548 1546 1545 1544 1542 1541 1539 1538 1537 1535 1534 1532 1530 1529 1527 1524 1522 1519 1516 1513 1510 1506 1503 1499 1495 1492 1488 1484 1481
1561 1561 1560 1560 1560 1559 1559 1558 1557 1556 1555 1554 1552 1551 1549 1548 1547 1546 1545 1543 1542 1540 1539 1537 1536 1534 1532 1530 1528 1526 1523 1521 1518 1514 1511 1508 1505 1501 1497 1494 1490 1486 1483
1561 1560 1560 1560 1560 1560 1559 1559 1558 1557 1556 1555 1554 1552 1551 1550 1549 1548 1547 1546 1545 1543 1541 1539 1538 1536 1534 1532 1530 1528 1525 1522 1519 1516 1513 1510 1506 1503 1500 1496 1492 1489 1486
1561 1561 1561 1561 1560 1560 1560 1560 1559 1559 1558 1556 1555 1554 1553 1552 1552 1551 1550 1549 1547 1545 1543 1541 1539 1537 1536 1534 1531 1529 1526 1523 1520 1517 1514 1511 1508 1505 1502 1498 1495 1492 1488
1561 1561 1561 1561 1561 1561 1561 1561 1560 1560 1559 1558 1557 1556 1555 1554 1554 1553 1552 1551 1549 1547 1545 1543 1541 1539 1537 1535 1533 1530 1527 1524 1521 1517 1514 1512 1509 1506 1504 1501 1497 1494 1491
1562 1562 1562 1562 1562 1562 1562 1561 1561 1560 1559 1559 1558 1557 1557 1556 1556 1555 1554 1552 1550 1548 1546 1543 1541 1539 1537 1536 1534 1531 1528 1525 1522 1519 1516 1513 1511 1508 1506 1503 1500 1497 1495
1562 1562 1562 1563 1563 1563 1562 1562 1561 1561 1560 1560 1559 1559 1558 1558 1557 1556 1555 1553 1551 1549 1546 1544 1541 1539 1538 1536 1534 1532 1530 1527 1523 1520 1518 1515 1513 1510 1508 1506 1503 1501 1498
1563 1563 1563 1563 1563 1563 1563 1563 1562 1562 1561 1561 1560 1560 1560 1559 1558 1557 1555 1553 1551 1549 1546 1544 1542 1540 1538 1536 1535 1533 1531 1528 1525 1522 1519 1517 1515 1513 1511 1509 1506 1504 1502